Elkins, WV

12:50 PM EDT on September 23, 2019 (GMT -0400)
Elkins-Randolph County

Weather History for KEKN - August, 2019

Change the Weather History Date:

Wednesday, August 21, 2019

  Actual Average Record
Temperature  
Mean Temperature 76 °F 69 °F  
Max Temperature 84 °F 80 °F 94 °F (1936)
Min Temperature 67 °F 58 °F 38 °F (1981)
Degree Days  
Heating Degree Days 0 1  
Month to date heating degree days 0 6  
Since 1 June heating degree days 39 73  
Since 1 July heating degree days 0 18  
Cooling Degree Days 11 4  
Month to date cooling degree days 170 104  
Year to date cooling degree days 640 385  
Since 1 June cooling degree days 557 362  
Growing Degree Days 26 (Base 50)    
Moisture  
Dew Point 66 °F    
Average Humidity 77    
Maximum Humidity 93    
Minimum Humidity 51    
Precipitation  
Precipitation 0.16 in 0.12 in 1.64 in (1931)
Month to date precipitation 3.27 2.70  
Year to date precipitation 34.89 31.67  
Sea Level Pressure  
Sea Level Pressure 30.03 in    
Wind  
Wind Speed 2 mph ()    
Max Wind Speed 15 mph    
Max Gust Speed 20 mph    
Visibility 8.0 miles    
Events Rain , Thunderstorm    
T = Trace of Precipitation, MM = Missing Value Source: Averaged Metar Reports

Daily Weather History Graph

Daily Weather History Graph

Search for Another Location

Airport or City:

Astronomy

Aug. 21, 2019 Rise Set
Actual Time 6:38 AM EDT 8:06 PM EDT
Civil Twilight 6:10 AM EDT 8:34 PM EDT
Nautical Twilight 5:36 AM EDT 9:07 PM EDT
Astronomical Twilight 5:00 AM EDT 9:43 PM EDT
Moon 11:26 PM EDT (8/21) 12:09 PM EDT (8/21)
Length of Visible Light 14h 24m
Length of Day
13h 28m
Waning Gibbous, 69% of the Moon is Illuminated
Aug 21
Waning Gibbous
Aug 23
Last Quarter
Aug 30
New
Sep 5
First Quarter
Sep 14
Full

Hourly Weather History & Observations

Time (EDT) Temp. Heat Index Dew Point Humidity Pressure Visibility Wind Dir Wind Speed Gust Speed Precip Events Conditions
12:00 AM 70.0 °F - 66.0 °F 87% 30.14 in 5.0 mi East 3.5 mph - 0.03 in Rain , Thunderstorm Thunderstorms and Rain
12:17 AM 70.0 °F - 66.9 °F 90% 30.13 in 7.0 mi Variable 3.5 mph - 0.06 in Rain , Thunderstorm Light Rain
12:34 AM 70.0 °F - 66.9 °F 90% 30.12 in 7.0 mi Calm Calm - 0.07 in Rain Light Rain
12:51 AM 70.0 °F - 66.0 °F 87% 30.06 in 9.0 mi Calm Calm - 0.08 in Rain Light Rain
1:51 AM 69.1 °F - 66.0 °F 90% 30.05 in 8.0 mi Calm Calm - 0.00 in   Partly Cloudy
2:51 AM 69.1 °F - 66.0 °F 90% 30.03 in 7.0 mi Calm Calm - N/A   Mostly Cloudy
3:51 AM 69.1 °F - 66.0 °F 90% 30.03 in 7.0 mi Calm Calm - 0.00 in   Partly Cloudy
4:51 AM 68.0 °F - 64.9 °F 90% 30.02 in 4.0 mi Calm Calm - N/A   Mostly Cloudy
5:51 AM 68.0 °F - 64.9 °F 90% 30.03 in 4.0 mi NW 4.6 mph - 0.00 in Rain Light Rain
5:59 AM 68.0 °F - 64.9 °F 90% 30.06 in 2.0 mi Calm Calm - 0.05 in Rain Light Rain
6:08 AM 68.0 °F - 66.0 °F 93% 30.06 in 6.0 mi SE 3.5 mph - 0.05 in Rain Light Rain
6:47 AM 69.8 °F - 66.2 °F 88% 30.08 in 5.0 mi Calm Calm - 0.07 in Rain Rain
6:51 AM 69.1 °F - 66.0 °F 90% 30.04 in 5.0 mi North 3.5 mph - 0.08 in Rain Rain
7:16 AM 69.1 °F - 66.0 °F 90% 30.08 in 6.0 mi Calm Calm - 0.00 in   Overcast
7:51 AM 70.0 °F - 66.9 °F 90% 30.04 in 7.0 mi Calm Calm - 0.00 in   Overcast
8:51 AM 72.0 °F - 66.9 °F 84% 30.04 in 9.0 mi Calm Calm - N/A   Overcast
9:51 AM 75.9 °F - 66.9 °F 74% 30.04 in 10.0 mi SSW 3.5 mph - N/A   Overcast
10:51 AM 79.0 °F - 66.0 °F 64% 30.02 in 10.0 mi WSW 5.8 mph - N/A   Scattered Clouds
11:51 AM 82.0 °F 83.8 °F 64.9 °F 56% 30.01 in 10.0 mi Variable 5.8 mph - N/A   Partly Cloudy
12:51 PM 82.9 °F 84.6 °F 64.9 °F 54% 30.01 in 10.0 mi WNW 4.6 mph - N/A   Mostly Cloudy
1:51 PM 82.9 °F 84.4 °F 64.0 °F 53% 30.00 in 10.0 mi Variable 5.8 mph - N/A   Mostly Cloudy
2:51 PM 82.0 °F 83.4 °F 64.0 °F 54% 30.00 in 10.0 mi WNW 11.5 mph - N/A   Mostly Cloudy
3:51 PM 84.0 °F 85.8 °F 64.9 °F 53% 29.99 in 10.0 mi West 8.1 mph - N/A   Mostly Cloudy
4:51 PM 84.9 °F 86.6 °F 64.9 °F 51% 29.97 in 10.0 mi WNW 12.7 mph 18.4 mph N/A   Partly Cloudy
5:51 PM 82.9 °F 84.6 °F 64.9 °F 54% 29.97 in 10.0 mi West 5.8 mph - N/A   Clear
6:51 PM 82.0 °F 83.8 °F 64.9 °F 56% 29.97 in 10.0 mi WNW 6.9 mph - N/A   Clear
7:51 PM 79.0 °F - 64.0 °F 60% 29.98 in 10.0 mi WSW 4.6 mph - N/A   Partly Cloudy
8:51 PM 75.9 °F - 64.9 °F 69% 29.99 in 10.0 mi SW 3.5 mph - N/A   Mostly Cloudy
9:51 PM 71.1 °F - 66.0 °F 84% 30.01 in 10.0 mi Calm Calm - N/A   Scattered Clouds
10:51 PM 71.1 °F - 66.0 °F 84% 30.02 in 10.0 mi Calm Calm - N/A   Mostly Cloudy
11:51 PM 70.0 °F - 66.0 °F 87% 30.03 in 10.0 mi Calm Calm - N/A   Mostly Cloudy